Location: Aalen
(48.8330°N, 10.1000°E)
Time: 06:01:21
(UTC+02:00)

Transit 2A - Pass Details

Date: 30 July 2021
Orbit: 594 x 964 km, 66.7° (Epoch: 21 September)

Event Time Altitude Azimuth Distance (km) Brightness Sun altitude
Rises 08:21:28 0° 213° (SSW) 2,833 8.6 22.8°
Reaches altitude 10° 08:23:39 10° 213° (SSW) 1,952 7.9 23.2°
Maximum altitude 08:28:01 88° 133° (SE) 638 6.1 23.9°
Drops below altitude 10° 08:32:45 10° 36° (NE) 2,109 8.9 24.7°
Sets 08:35:11 0° 36° (NE) 3,083 9.6 25.1°
